Wind_Speed
7 6 6 7 7 8 7 4 1 2 3 2 4 3 3 4 3 4 5 4 3 4 4 5 5 5 3 3 5 8 8 6 3 2 2 7 16 16 15 20 20 19 18 16 16 15 13 12 12 11 11 12 13 14 14 13 12 12 12 12 12 12 12 13 13 13 13 13 14 14 15 16 16 16 16 16 15 16 16 16 17 17 17 17 17 16 16 17 18 18 18 18 18 18 19 20 21
6 5 6 8 8 5 3 3 1 3 3 4 4 4 3 3 2 5 7 6 4 3 4 5 5 4 2 3 1 6 8 8 7 4 6 14 17 14 18 21 20 19 17 18 17 15 13 12 12 12 12 12 13 14 13 13 12 11 12 12 11 11 12 13 13 12 12 13 14 14 15 16 16 16 16 16 15 16 16 16 17 17 16 16 17 17 16 17 18 18 17 17 18 19 20 22 23
6 4 4 7 7 4 2 1 2 4 2 5 4 3 4 4 5 9 9 8 6 5 5 4 4 3 3 2 2 4 5 6 9 7 8 15 13 13 19 19 20 19 17 19 17 15 14 12 12 12 12 12 12 13 13 12 11 11 11 11 12 11 12 12 12 12 12 13 14 14 16 17 17 17 16 16 16 16 16 16 17 17 16 16 18 19 18 18 19 17 17 17 18 20 22 25 26
6 3 3 6 3 3 2 2 3 3 3 4 3 2 3 6 8 9 8 7 6 4 4 2 2 2 3 3 4 4 5 6 10 10 7 13 14 16 19 18 19 18 17 19 17 16 15 14 13 11 12 11 11 11 11 10 10 10 10 12 12 12 12 12 12 12 13 14 14 14 16 17 17 17 16 16 16 16 16 16 17 17 17 18 18 19 19 19 18 18 17 17 19 20 24 27 28
5 3 4 5 1 1 1 2 2 3 4 2 4 3 4 9 9 8 7 6 5 4 3 1 2 1 2 3 3 2 4 5 10 12 9 13 20 20 18 18 18 17 18 18 17 16 16 16 14 13 12 12 11 11 10 10 10 10 10 12 12 11 12 12 12 12 12 14 14 15 16 17 18 17 17 17 16 16 16 17 17 17 17 17 17 18 18 18 18 17 16 17 19 21 23 26 28
7 5 6 5 1 1 1 3 1 5 3 4 4 3 6 9 8 8 8 6 6 5 3 2 2 1 3 3 5 4 2 4 9 11 12 17 22 20 19 18 16 16 17 17 15 16 18 17 16 15 14 13 12 11 11 10 10 11 11 12 11 11 12 11 11 12 12 14 14 14 16 17 18 17 17 17 17 17 17 17 17 18 18 17 17 18 18 18 17 16 15 17 19 21 24 27 27
8 5 4 3 2 0 2 3 3 5 4 5 4 4 8 8 8 8 8 6 4 4 2 2 1 2 2 2 5 6 6 7 8 10 15 20 21 18 19 17 15 16 15 17 14 14 19 18 17 16 15 14 12 12 11 10 11 12 12 13 12 11 12 11 10 11 12 13 13 14 15 17 18 17 17 17 17 17 17 17 16 17 17 17 17 17 17 16 16 14 14 17 19 21 26 27 26
7 4 1 1 2 1 3 1 5 4 2 5 5 4 8 8 7 7 6 5 3 4 2 1 1 2 1 1 3 4 9 11 11 14 17 21 20 18 18 16 15 16 15 17 13 14 19 18 17 15 15 14 12 12 10 10 11 12 13 13 12 11 11 10 10 11 12 13 13 14 15 17 18 17 17 17 17 16 17 16 16 17 16 16 16 16 16 16 15 14 15 18 19 21 26 27 26
5 3 1 1 2 2 2 3 5 4 3 4 4 4 7 7 6 6 6 5 4 5 4 3 2 1 2 3 4 5 8 12 15 15 15 18 18 18 17 15 16 17 16 16 12 15 20 18 17 15 14 14 13 12 10 9 11 13 14 13 12 11 11 10 10 10 11 12 12 13 14 16 17 17 17 17 16 16 16 16 17 16 15 15 16 16 16 15 13 13 17 19 19 24 27 26 25
4 2 1 1 3 3 2 4 4 4 5 4 5 4 5 4 4 6 6 6 5 5 5 4 3 0 1 5 3 4 10 12 15 15 13 15 16 16 15 14 15 17 16 14 13 17 20 18 17 16 15 15 14 12 10 9 11 14 14 13 12 12 11 10 9 9 10 11 11 13 14 15 16 17 16 16 16 16 16 15 16 15 14 15 15 15 14 14 13 14 18 19 21 26 27 26 26
2 2 1 1 3 3 0 4 4 4 5 4 5 5 3 3 3 4 5 6 5 5 5 3 2 1 1 5 2 6 15 15 15 16 14 16 16 15 14 13 15 16 15 14 14 18 20 19 18 16 15 15 14 13 11 10 13 15 14 12 12 13 11 10 9 8 9 10 10 12 13 14 14 15 16 16 16 16 15 15 15 15 14 15 14 14 14 14 15 16 19 21 23 26 26 25 24
1 3 1 2 4 1 3 3 5 5 5 4 4 4 2 3 2 3 5 5 5 6 6 4 1 0 2 3 2 9 16 15 16 17 15 16 16 15 14 13 14 15 15 14 14 17 19 19 18 17 16 15 15 14 13 11 14 15 14 12 12 13 12 10 9 8 9 9 10 11 12 13 13 14 15 16 16 16 15 15 15 15 15 15 14 14 15 16 16 17 19 21 23 25 24 22 21
2 3 3 3 3 2 3 2 4 4 4 5 5 5 4 3 3 4 4 4 5 5 4 4 2 2 1 4 4 8 11 14 17 18 17 15 14 14 13 13 14 14 15 15 13 14 18 19 18 18 16 16 16 14 14 13 15 15 14 13 12 12 12 11 10 9 9 9 10 11 11 12 12 13 14 15 16 16 15 15 16 15 15 15 15 15 16 16 16 16 18 21 22 22 21 20 21
2 1 1 2 1 2 2 2 1 1 2 4 6 5 4 3 2 2 3 4 4 2 2 3 3 2 1 4 4 4 8 15 18 18 18 16 14 14 12 12 14 14 15 15 14 14 15 17 18 17 17 16 16 15 15 15 16 15 14 14 12 12 13 11 11 10 9 10 10 11 11 11 12 12 13 14 14 14 14 15 16 16 16 16 16 16 17 16 16 16 17 19 20 20 20 20 22
2 2 1 2 1 1 1 1 1 2 2 5 5 6 5 1 1 3 2 3 3 1 2 3 3 2 2 2 3 5 12 17 18 17 18 16 14 13 12 12 13 13 14 15 15 14 13 15 16 17 17 16 17 16 16 16 17 16 15 15 13 12 13 12 12 11 10 10 10 10 11 11 11 11 12 13 13 13 13 14 15 15 15 15 16 16 17 16 16 16 18 19 19 19 20 22 25
1 2 0 1 2 0 1 1 1 2 2 5 5 6 6 2 2 2 2 2 3 1 1 3 2 2 4 4 5 13 18 18 17 17 17 16 13 13 12 11 13 13 13 14 14 14 15 16 16 17 17 17 17 16 17 17 17 17 16 16 15 13 13 13 12 12 11 10 10 10 11 11 11 11 11 12 13 13 14 14 14 14 14 15 15 16 16 16 15 17 18 18 18 18 20 24 25
1 1 0 1 2 2 3 2 2 3 3 5 6 6 6 3 1 0 1 1 3 2 1 3 3 3 5 7 11 18 19 18 18 18 17 16 13 13 13 11 13 14 13 14 14 14 16 16 15 16 17 17 17 17 17 17 18 18 17 17 16 15 14 14 13 12 12 11 11 11 11 11 11 12 12 12 13 13 14 14 14 14 15 15 15 15 16 15 15 17 17 16 17 17 20 22 23
1 1 1 3 4 2 2 3 3 4 6 5 6 6 5 6 3 1 1 1 2 4 4 4 6 8 10 13 16 17 17 18 18 18 17 16 15 14 14 13 14 15 15 15 14 14 16 17 15 15 16 16 16 17 17 17 19 19 18 18 17 17 16 15 14 13 13 12 12 11 11 12 12 12 12 13 13 14 14 14 15 15 15 15 15 15 15 16 17 18 17 16 17 17 19 20 21
2 2 2 3 1 2 4 6 6 4 4 6 6 6 4 5 7 3 2 4 5 4 4 5 6 8 10 13 16 16 16 17 17 17 17 16 16 16 15 16 16 16 17 16 16 15 16 16 16 15 15 16 16 17 17 17 19 20 19 19 19 18 17 16 15 15 15 14 13 11 11 11 11 13 13 13 14 14 14 14 14 14 15 15 15 15 15 17 19 18 17 18 18 18 19 18 19
1 0 2 2 2 4 7 8 7 5 3 5 6 3 2 3 5 4 3 5 6 7 5 7 7 7 9 11 15 17 16 16 17 16 16 16 16 16 17 18 19 18 18 18 17 17 17 17 17 15 14 16 17 17 18 17 18 19 19 19 20 19 19 18 16 16 16 15 14 12 13 13 11 12 13 13 13 14 13 13 13 14 14 15 15 15 17 19 19 19 19 19 18 18 17 15 16
0 0 1 2 3 4 6 7 7 5 5 2 6 3 1 2 3 3 4 4 5 6 6 7 9 11 12 11 14 18 17 16 16 16 16 17 17 17 18 19 20 19 18 18 18 19 19 18 18 16 15 16 17 17 17 17 17 18 18 19 20 21 20 20 17 17 17 16 16 15 16 15 12 12 13 13 13 13 13 13 13 14 15 15 15 16 18 20 20 20 18 17 16 16 15 14 14
1 1 3 4 4 4 5 5 6 5 4 3 6 3 1 3 2 3 5 4 3 2 1 2 2 8 14 13 14 15 15 15 16 16 17 18 18 18 17 18 19 19 19 21 21 22 21 20 20 19 16 17 17 16 15 16 17 18 19 20 21 21 22 22 19 18 18 17 18 17 17 16 13 12 13 14 14 14 14 14 14 15 15 15 15 17 19 21 21 18 15 14 15 15 15 15 15
1 1 5 5 5 4 3 4 4 5 4 3 3 1 2 3 2 4 6 6 3 4 6 7 7 8 17 16 13 13 12 13 16 19 20 20 21 20 19 19 20 20 21 23 23 22 23 22 23 22 19 17 17 17 16 15 16 18 19 20 22 22 23 23 22 21 19 19 19 18 18 17 15 15 14 14 14 15 15 15 15 16 16 17 17 18 21 21 19 15 13 15 16 16 16 16 16
2 0 4 3 5 5 3 3 2 4 4 3 2 3 2 2 3 0 4 8 4 4 8 8 8 12 17 14 11 11 12 14 18 21 23 22 22 22 20 20 21 22 21 23 23 22 24 25 24 24 22 20 18 19 18 16 16 17 19 20 22 23 23 24 25 23 21 20 20 19 20 19 17 17 17 14 14 15 14 13 15 17 18 19 19 20 21 18 15 14 15 16 17 17 17 16 16
3 1 4 2 3 5 4 4 3 2 2 3 3 3 3 1 1 2 5 7 6 3 7 7 8 9 10 10 10 10 10 14 16 19 20 20 21 21 21 20 19 22 22 23 23 23 25 27 26 25 26 25 21 21 21 18 16 16 18 20 21 22 23 24 25 25 23 22 21 21 22 21 18 19 19 17 15 15 15 13 14 17 19 18 19 20 18 15 15 16 16 17 17 17 17 16 17
2 3 5 4 4 4 3 4 4 1 0 2 1 4 2 3 3 4 8 8 8 5 7 7 7 7 7 8 10 10 9 12 16 17 19 20 19 20 22 22 20 22 24 23 24 24 24 25 27 26 27 26 23 22 22 21 19 17 17 19 20 21 23 23 24 26 26 24 23 23 23 22 20 21 21 20 17 16 18 17 15 17 17 16 18 19 16 15 17 17 17 17 18 18 18 17 17
0 5 6 5 6 4 1 2 4 1 1 2 2 5 2 3 1 4 5 4 6 7 7 7 7 7 7 7 8 10 10 13 18 18 17 18 18 20 22 23 22 21 23 24 24 25 23 23 26 28 26 25 24 23 23 22 21 20 19 19 20 21 22 23 23 25 27 26 25 24 23 22 21 22 23 22 20 19 21 19 16 17 18 17 19 19 17 17 18 18 18 18 18 19 19 18 17
2 6 6 5 5 5 2 2 5 2 1 1 3 6 4 3 2 8 5 2 5 7 6 7 7 7 7 8 8 8 10 14 20 19 17 20 22 23 23 25 26 23 23 25 25 24 23 22 25 28 27 24 23 24 23 23 23 22 21 21 21 21 21 22 23 24 25 26 27 26 25 23 22 23 24 24 22 23 23 20 18 19 19 19 20 20 19 19 20 19 19 18 18 19 18 18 18
4 4 3 6 4 4 5 4 4 3 1 1 1 5 7 5 9 14 7 5 5 6 6 6 7 7 7 8 7 7 9 14 18 19 20 23 25 26 26 27 28 26 25 26 26 25 24 25 26 28 28 24 24 25 24 24 23 21 22 23 22 22 22 22 24 24 25 25 26 28 27 25 23 24 24 25 25 25 25 22 21 21 20 20 21 20 20 21 22 21 19 19 18 18 18 18 18
3 3 0 4 3 3 7 6 5 3 1 1 2 2 6 6 13 13 7 8 6 6 6 6 6 6 7 7 7 7 9 12 15 19 23 23 24 25 26 27 28 28 25 24 27 28 27 27 28 29 29 27 27 27 25 25 25 23 22 22 23 24 24 24 24 24 25 26 27 28 29 27 26 25 25 26 27 27 27 25 24 22 20 21 22 22 23 24 24 23 21 20 20 19 19 19 18
3 2 1 1 1 1 5 5 6 4 0 2 3 1 7 7 5 4 6 7 7 6 7 6 6 6 7 7 7 7 8 12 16 20 22 23 23 24 25 25 26 28 27 25 27 29 29 29 29 30 30 29 28 28 27 25 26 25 23 23 23 23 24 26 26 25 24 26 28 28 29 30 28 26 26 27 28 28 28 28 27 25 23 24 24 25 25 26 26 26 24 23 22 20 20 19 19
1 3 1 2 1 1 2 2 5 4 1 3 4 2 8 8 2 3 4 4 4 5 6 6 7 6 6 6 7 6 7 13 18 20 21 23 24 24 25 26 26 28 29 29 28 28 29 30 30 30 30 31 30 30 28 26 26 26 26 25 23 23 23 25 27 27 25 25 27 29 30 30 28 28 27 28 29 29 29 29 29 28 27 28 27 26 27 27 27 27 26 25 25 23 22 20 19
1 1 2 2 3 3 2 1 1 3 2 4 5 3 5 4 3 4 3 5 5 5 6 7 7 6 6 6 7 7 7 9 14 18 22 24 25 25 25 26 27 28 30 30 29 29 29 29 31 30 30 32 32 31 29 28 28 27 26 24 22 22 23 24 26 26 27 25 25 27 29 29 29 29 28 28 29 30 30 30 30 30 31 31 29 28 29 28 28 27 26 26 26 26 25 23 21
2 2 2 2 3 4 2 0 0 2 2 3 5 5 7 8 5 3 4 6 7 6 7 8 7 6 7 6 6 7 8 8 9 15 23 25 26 27 26 26 28 29 29 29 29 31 31 30 30 30 30 31 33 32 30 29 28 27 25 24 23 23 22 24 24 25 26 26 25 26 27 29 30 31 30 28 28 30 31 32 31 31 33 32 31 30 30 29 29 29 28 26 25 27 27 25 24
3 4 3 3 2 3 2 1 2 3 2 3 5 6 9 12 11 7 7 8 8 8 9 8 8 8 7 7 7 7 8 8 9 16 24 27 27 28 27 27 27 28 29 29 29 30 31 31 30 30 30 30 31 31 30 29 27 26 26 25 24 24 24 23 24 25 26 27 26 25 26 28 30 31 31 29 28 30 32 33 33 33 34 33 33 32 31 31 30 30 29 27 25 26 27 27 26
2 1 2 3 2 2 1 3 1 1 2 4 6 8 9 11 12 10 9 8 8 9 8 8 8 8 7 7 7 7 8 9 12 18 24 27 28 29 29 28 28 28 29 29 28 29 31 31 30 31 31 30 30 30 29 29 28 27 27 27 26 25 26 26 25 27 28 29 29 27 27 28 29 31 32 30 30 31 33 34 34 34 35 35 35 34 34 33 33 32 30 29 27 25 25 27 27
4 3 3 2 1 1 2 4 1 2 1 5 7 8 10 11 12 10 8 8 8 8 9 8 8 8 8 8 8 9 9 8 12 18 23 28 30 29 29 29 28 27 28 29 29 30 32 32 31 31 32 31 31 31 30 30 31 31 30 31 30 27 26 27 27 28 30 31 32 31 31 30 30 31 32 32 33 33 33 34 34 35 36 36 37 37 36 35 34 33 31 30 30 28 26 26 28
4 4 4 4 2 0 3 3 1 2 2 4 6 8 10 10 10 10 8 9 9 9 9 10 10 9 8 9 10 10 8 6 9 13 19 26 28 28 29 29 29 29 30 31 32 33 32 32 32 32 32 32 32 33 33 33 34 34 33 33 33 29 27 28 28 29 30 31 31 30 32 33 32 31 33 34 35 35 33 33 34 35 36 37 37 37 37 36 34 34 33 31 29 29 28 28 31
4 2 2 3 2 1 3 3 1 1 1 4 6 7 10 10 10 12 11 11 11 10 11 11 10 10 9 9 10 9 8 7 8 9 13 20 24 25 26 27 29 31 31 32 32 32 31 31 32 32 33 34 34 34 34 35 34 33 31 30 29 28 26 28 29 28 28 29 28 27 29 33 33 32 33 35 35 36 34 33 34 36 37 38 37 36 36 36 36 36 36 34 30 28 26 29 33
1 1 1 2 1 1 1 2 1 2 4 3 6 6 10 11 9 13 14 15 14 10 11 11 9 10 10 10 8 8 9 8 9 8 10 15 19 22 24 26 28 28 27 28 29 30 31 32 33 33 33 34 35 35 34 33 31 29 28 26 26 26 25 25 26 26 27 27 28 28 29 30 32 33 34 35 36 35 35 34 34 36 37 38 38 38 37 37 38 39 39 38 34 30 26 29 32
3 5 4 4 3 2 2 2 2 4 2 1 5 6 8 7 6 9 9 9 11 8 8 10 9 10 10 9 8 8 8 8 8 9 9 11 16 21 24 26 26 26 26 27 29 30 30 31 32 32 32 33 33 34 33 31 29 28 27 24 23 24 23 23 25 26 27 27 28 30 31 31 30 32 33 35 35 34 34 34 34 36 36 37 38 39 40 40 41 42 42 41 40 36 31 31 32
3 5 4 5 5 1 4 3 4 3 2 1 2 3 6 5 5 8 6 3 6 6 8 11 10 9 8 8 9 8 7 7 7 8 8 10 15 20 22 23 24 25 26 27 28 29 28 28 29 29 28 30 31 31 31 31 30 29 29 28 26 25 24 25 28 29 28 28 28 29 33 34 31 30 31 32 34 34 34 33 33 35 35 36 38 39 40 41 42 43 44 43 42 40 35 32 34
2 3 3 2 3 3 3 2 2 0 3 3 2 1 5 8 10 10 6 6 8 7 8 11 9 8 8 8 8 8 8 7 7 7 6 8 13 15 17 20 22 23 24 24 25 26 26 25 26 27 27 27 28 29 30 31 30 30 30 30 29 28 27 27 28 28 27 27 27 27 32 35 33 31 31 31 33 34 34 33 33 34 36 38 38 39 40 41 43 44 44 44 41 38 35 33 36
2 3 5 4 2 3 3 1 1 2 3 2 3 4 3 7 11 9 5 7 10 9 10 10 8 8 9 8 7 7 7 6 6 7 6 6 10 14 15 18 21 21 21 21 22 23 24 23 24 26 26 26 26 27 29 30 30 29 28 28 27 27 26 24 23 24 24 24 26 28 30 32 33 32 31 31 32 32 32 32 32 34 36 38 38 39 41 42 43 43 42 42 40 36 35 34 35
1 3 2 2 4 4 2 2 1 1 4 3 3 3 2 5 9 10 6 7 8 10 11 11 11 10 8 5 5 5 5 5 5 6 4 4 8 12 14 16 18 18 18 19 20 21 22 22 22 24 26 25 25 26 27 29 29 28 27 26 25 25 24 22 20 20 22 23 25 28 29 30 31 31 31 30 30 29 29 30 32 33 35 37 38 38 39 40 41 41 41 42 40 38 38 35 33
3 4 3 4 4 4 3 3 1 2 2 4 5 5 3 4 6 8 6 5 7 9 9 8 6 4 4 5 6 6 6 5 5 5 6 6 7 8 9 12 14 15 16 17 19 20 21 22 22 23 24 24 24 25 26 27 28 28 27 27 26 25 23 21 19 19 22 24 25 26 28 30 31 32 31 30 29 29 29 31 32 33 34 36 37 36 36 38 40 42 43 43 42 41 40 37 33
4 4 4 3 2 4 2 2 3 1 4 4 6 10 6 5 5 6 5 4 5 6 4 1 3 6 7 6 5 4 4 4 4 5 6 7 8 8 9 11 13 14 15 16 18 19 21 22 22 23 23 23 23 24 25 26 28 28 28 28 27 26 23 22 21 21 22 24 25 25 28 29 31 32 32 31 30 30 30 31 31 32 33 34 34 34 35 37 39 41 41 41 42 42 40 38 35
2 2 4 3 1 3 3 1 3 1 4 2 2 4 5 6 6 4 4 2 3 3 1 2 5 6 6 5 4 5 5 5 6 5 5 6 6 8 10 11 13 14 15 16 18 19 20 22 22 23 23 23 22 23 25 26 27 28 28 28 28 26 24 23 24 24 24 25 26 26 27 28 29 29 30 30 31 31 31 32 31 31 31 32 33 34 35 36 37 39 39 39 40 40 39 37 34
1 2 5 4 1 2 1 1 1 3 5 3 3 3 3 8 7 5 7 6 3 4 2 2 4 5 6 6 6 5 6 6 6 6 6 6 5 8 12 14 16 16 17 18 19 19 20 21 22 22 23 23 22 22 24 26 27 28 28 28 27 26 24 25 25 26 27 27 27 27 28 28 28 29 30 30 31 32 33 34 34 33 32 32 33 33 34 35 36 36 36 38 39 40 39 37 35
3 5 6 4 3 2 4 4 2 3 3 4 4 2 4 6 5 6 8 7 5 1 2 2 2 5 6 7 7 6 6 6 6 6 6 6 6 9 13 15 17 19 19 19 20 20 20 20 21 21 23 23 23 23 24 26 27 28 28 28 27 26 25 26 27 26 26 27 28 28 29 30 30 31 31 30 30 31 33 34 35 35 34 33 33 33 34 35 36 36 36 37 39 40 40 39 37
6 5 5 5 5 4 4 3 3 4 1 3 3 1 3 2 3 4 4 5 5 2 1 2 3 2 2 3 5 7 6 6 6 6 6 6 8 11 13 15 18 19 20 20 20 21 21 21 22 23 24 25 25 24 24 25 27 27 28 28 27 26 25 26 27 27 26 26 27 28 29 30 31 31 31 29 29 31 33 33 33 33 33 33 33 33 34 36 36 36 36 37 38 39 39 37 35
5 3 3 5 4 3 2 2 3 2 1 2 2 3 5 4 6 8 6 8 8 6 5 5 6 5 4 5 5 5 6 6 6 6 6 7 10 14 15 16 18 19 19 21 21 22 22 22 23 24 24 25 26 26 26 26 26 26 27 27 26 26 25 26 27 28 27 26 27 28 29 30 31 30 29 28 29 31 33 33 32 32 33 33 33 33 34 35 35 35 35 36 37 38 38 36 32
3 3 5 4 2 3 2 2 1 3 2 4 3 5 7 3 7 10 10 11 8 6 7 6 7 8 7 7 4 3 6 7 7 7 7 8 10 14 16 17 19 20 20 22 22 22 22 23 23 24 24 25 26 28 27 26 26 25 26 26 26 25 25 26 26 27 27 27 26 27 28 29 30 30 29 28 29 31 33 33 33 33 33 34 33 33 33 33 34 34 35 35 36 37 37 36 32
4 4 5 1 4 2 2 1 2 1 5 4 3 8 8 3 5 4 3 7 8 7 7 6 8 9 7 8 6 4 7 6 6 7 7 7 8 11 14 16 17 19 20 21 21 21 21 22 23 24 25 26 27 28 28 27 26 26 26 26 26 25 25 25 25 25 26 27 27 27 27 28 29 29 28 28 28 31 33 33 33 34 34 35 34 33 32 32 32 33 33 34 34 34 34 34 32
3 2 2 3 1 1 2 2 2 3 4 4 5 8 7 7 7 3 2 3 6 8 8 7 7 6 5 7 7 3 1 1 2 4 5 5 6 9 11 14 15 17 19 19 20 20 21 22 22 23 24 25 26 26 27 26 26 25 25 25 25 26 25 25 25 24 25 26 28 28 28 28 28 27 27 28 28 30 31 32 33 34 35 35 34 33 32 31 32 31 31 31 32 32 33 32 31
4 3 2 2 2 3 3 3 2 2 4 5 7 7 6 8 6 3 6 8 8 7 6 4 3 2 3 6 5 2 4 4 5 6 6 5 7 8 9 12 14 16 17 18 19 20 21 22 22 22 22 23 24 25 26 26 26 25 24 24 25 25 26 25 25 25 25 26 28 29 29 29 28 27 27 27 27 28 30 30 30 32 33 33 32 32 31 31 31 30 29 29 30 31 32 31 30
1 0 1 1 1 2 0 2 2 3 4 4 5 7 8 6 2 3 6 4 4 4 3 3 4 4 4 2 2 2 3 5 6 6 5 3 4 6 7 10 12 14 16 17 19 20 21 21 22 22 22 23 24 26 26 26 26 25 25 25 25 25 25 25 26 27 26 27 27 28 29 28 27 27 27 26 26 26 27 28 28 29 31 31 30 30 31 31 30 29 28 28 29 29 29 30 29
8 7 7 7 5 3 2 4 4 3 3 4 4 7 11 6 3 1 2 5 5 6 7 7 7 5 1 4 4 2 1 6 6 5 4 3 2 2 6 8 10 13 15 16 18 20 21 22 22 22 23 24 25 26 27 27 26 26 26 25 25 25 25 26 26 26 26 26 27 27 27 27 27 27 26 25 24 24 25 26 27 29 29 29 29 29 29 30 29 29 29 28 28 28 28 28 28
Wind_Direction
290 298 311 305 292 298 283 238 285 247 196 97 96 107 72 78 125 126 111 122 97 54 39 51 44 32 27 11 58 82 47 34 44 26 102 138 145 148 140 138 141 137 138 145 150 147 145 142 136 135 130 133 129 123 123 118 112 108 103 95 90 90 88 83 78 74 73 72 73 77 81 83 87 89 89 88 89 89 89 88 89 91 89 87 87 86 84 80 78 77 78 80 82 82 82 86 88
293 300 303 293 272 273 272 184 261 260 166 90 74 85 105 132 143 92 87 86 79 78 60 47 52 50 12 340 51 84 55 51 72 81 104 131 142 142 137 138 138 138 142 144 148 148 147 145 138 134 131 132 127 124 123 119 116 111 106 98 94 94 90 85 82 79 75 77 80 82 86 86 87 88 89 90 91 91 91 91 92 94 94 93 88 85 83 79 78 78 78 78 81 82 84 87 90
295 290 292 280 253 231 277 212 237 267 126 97 72 104 142 131 92 77 78 85 90 98 84 67 73 56 309 317 21 66 75 75 92 96 112 137 144 141 142 142 140 139 140 142 146 151 151 148 141 135 132 132 128 126 124 121 119 113 109 104 101 100 94 89 85 82 76 76 83 88 91 89 87 88 89 92 93 94 93 94 96 95 95 94 87 83 82 80 80 80 79 79 79 83 88 91 92
292 290 294 285 256 209 270 231 236 309 61 98 95 144 144 99 90 85 85 90 97 108 101 112 100 17 341 24 19 72 97 87 108 115 131 156 151 143 145 144 142 138 139 143 146 153 155 150 143 139 134 131 132 130 128 126 124 118 115 112 109 107 99 92 88 82 77 75 82 90 92 91 89 90 90 93 95 96 96 97 99 96 92 88 84 83 82 82 83 82 80 79 80 85 93 96 96
305 299 268 276 292 223 280 270 277 37 30 44 106 144 114 97 99 98 94 91 86 76 66 84 75 22 61 42 355 76 100 96 119 125 125 141 144 145 147 144 143 139 140 146 150 155 156 153 150 146 139 137 141 139 138 137 132 126 124 122 115 114 106 95 92 87 82 79 85 91 94 95 93 93 93 95 97 97 99 99 98 95 92 88 87 87 86 87 87 86 83 81 82 87 95 99 98
318 303 242 241 268 36 341 281 12 77 4 359 102 115 91 100 108 106 102 93 81 67 36 58 66 29 100 63 48 60 70 122 125 128 127 130 140 147 148 147 145 143 143 147 153 157 156 157 156 151 148 148 150 148 146 145 143 135 133 128 119 122 112 100 96 91 86 81 86 92 96 98 97 97 97 98 99 100 101 99 99 97 94 94 94 93 92 91 89 88 84 83 86 90 99 103 99
308 304 218 232 265 103 250 262 60 78 348 6 81 102 92 103 112 119 121 108 93 90 20 29 38 355 106 112 81 60 48 102 116 118 132 135 141 149 151 149 146 148 147 148 153 158 159 160 159 157 155 155 155 152 149 151 152 143 139 131 124 130 118 107 104 97 90 86 88 92 98 101 100 100 99 100 100 102 103 101 101 101 99 98 96 94 94 92 91 91 88 89 89 94 103 105 100
282 282 142 280 272 217 254 27 62 68 19 23 44 74 100 116 127 133 131 124 125 126 142 106 85 29 138 144 83 91 67 92 114 114 127 134 142 152 154 152 150 151 149 153 156 158 163 164 162 163 159 158 159 154 150 157 159 150 142 134 130 133 124 116 110 101 94 90 91 93 99 103 103 103 102 103 102 104 104 103 103 102 104 104 99 96 96 96 97 94 95 94 92 100 106 105 101
243 239 58 321 272 251 257 89 86 87 104 87 60 63 99 128 141 131 117 115 130 126 134 137 106 65 142 93 80 130 97 103 121 122 130 138 148 153 153 156 155 149 152 163 161 161 165 167 166 165 162 159 161 156 152 159 161 154 145 138 138 135 130 125 115 106 97 92 90 91 97 102 104 104 104 104 105 108 107 106 106 104 104 103 101 100 100 101 101 98 101 99 97 106 108 106 104
221 204 314 302 272 253 232 96 96 95 94 93 105 105 104 137 147 134 125 117 130 118 99 89 96 341 159 111 98 139 130 128 128 131 141 144 149 153 156 159 157 151 155 166 162 164 166 168 169 166 164 161 163 158 153 161 161 157 149 145 146 140 137 136 125 114 105 96 91 89 94 100 105 107 108 110 109 111 113 112 110 108 107 104 101 102 103 106 104 104 108 104 104 112 112 109 107
236 198 257 307 269 259 320 92 103 107 102 89 107 116 112 142 138 132 123 110 120 113 111 116 119 232 195 110 78 126 135 141 136 139 144 147 152 156 160 157 160 155 154 161 158 164 167 169 171 168 166 165 166 160 154 162 163 159 152 152 153 147 144 145 136 125 115 103 97 92 94 100 106 112 114 115 116 116 118 118 114 113 113 111 109 108 109 110 107 108 112 110 112 116 114 111 108
240 204 151 284 278 358 22 71 100 104 121 136 123 125 144 139 139 144 123 115 130 124 136 166 130 257 169 103 108 136 138 147 147 148 146 149 156 159 163 160 163 159 157 162 158 163 170 172 172 170 169 167 168 165 158 160 166 162 155 158 160 153 150 151 144 134 125 113 107 100 98 103 109 117 120 121 121 121 121 121 119 119 119 117 117 116 114 112 109 110 114 116 119 118 115 112 109
238 218 160 235 280 27 6 27 99 123 148 163 139 138 151 154 176 158 136 129 134 141 138 142 108 30 96 87 116 143 148 153 150 152 151 152 158 160 165 167 167 165 165 163 159 166 173 175 175 173 171 171 172 169 164 162 168 166 159 164 166 160 155 154 150 141 133 123 117 111 107 108 111 116 122 126 128 128 129 129 126 123 123 122 119 117 116 115 112 110 114 120 123 120 115 114 112
276 275 176 235 293 17 6 43 128 173 131 121 119 138 154 172 192 124 139 138 107 133 123 86 87 64 83 109 133 163 156 149 145 150 154 153 158 163 168 172 170 170 172 166 162 168 175 177 179 179 174 177 177 173 172 168 168 169 165 168 170 168 161 158 156 149 140 133 127 121 117 113 115 117 121 127 131 133 133 132 132 129 127 126 123 123 122 118 115 113 119 123 121 118 114 114 112
302 330 347 309 337 6 39 104 333 360 90 112 122 149 145 62 12 46 64 115 83 119 108 53 57 75 68 109 158 161 147 144 144 149 153 153 154 164 172 173 172 173 178 175 170 171 172 176 184 185 181 183 182 178 179 175 171 173 172 170 172 173 167 165 163 158 149 141 135 129 126 121 120 121 123 127 129 131 130 132 136 135 132 128 129 133 128 120 117 121 126 125 121 120 116 113 111
287 327 11 325 307 252 150 172 83 28 90 126 146 153 136 59 6 60 358 57 112 140 76 67 64 76 60 64 105 127 139 143 146 147 148 152 152 165 173 170 174 178 180 181 182 180 174 179 188 188 187 190 188 183 183 182 179 179 178 175 174 175 174 172 171 166 156 148 141 136 133 129 127 127 129 131 132 133 134 137 140 138 136 131 132 136 130 121 120 128 132 129 127 125 120 117 110
277 315 147 223 245 209 172 163 123 135 112 124 158 162 145 138 360 65 287 334 116 123 116 103 85 80 88 103 114 121 136 143 145 146 146 153 156 165 174 175 178 184 186 186 190 189 184 187 190 190 195 197 194 189 186 187 186 186 183 180 177 177 180 179 178 173 162 157 150 144 141 137 134 135 137 137 139 140 140 143 144 143 140 138 135 134 129 123 125 133 134 130 130 129 127 123 110
281 163 206 220 223 251 166 106 79 131 133 143 167 179 170 149 164 141 121 258 129 141 151 121 86 84 104 121 127 129 140 145 149 151 151 159 163 167 176 184 187 189 191 193 194 192 192 194 191 191 196 198 197 192 190 192 191 191 186 184 183 181 184 184 183 179 169 163 157 152 146 143 144 144 144 145 145 145 147 149 149 149 145 144 140 135 132 127 130 136 134 131 132 133 135 129 114
255 171 208 232 190 358 26 64 59 56 114 148 161 200 211 152 156 145 156 192 177 178 177 157 133 107 116 130 137 140 147 153 160 161 160 167 172 173 176 185 193 193 190 194 196 194 195 196 195 194 191 190 193 192 194 197 193 192 191 187 187 186 186 188 188 183 175 168 163 154 144 148 153 152 152 153 152 151 153 154 153 151 149 147 144 138 134 132 137 140 137 135 135 135 132 127 119
268 162 195 254 60 58 34 54 68 36 39 138 147 190 242 139 139 143 204 204 180 193 195 175 175 158 149 149 147 149 154 162 170 171 170 175 180 180 179 184 192 196 193 192 196 196 196 195 195 198 195 189 189 193 196 198 195 193 196 193 191 190 187 188 191 187 183 175 163 151 151 163 167 161 160 160 158 156 157 158 156 153 151 151 149 143 139 140 145 143 138 136 135 135 130 122 122
325 24 154 329 7 56 44 48 52 30 8 62 119 118 239 132 112 153 201 222 200 207 204 189 194 179 163 159 155 156 159 165 177 181 179 182 187 188 186 187 192 197 195 192 197 197 197 196 193 194 200 196 190 196 198 196 195 193 196 197 193 193 189 189 192 190 189 181 166 157 165 177 178 170 167 166 165 162 159 160 158 155 154 154 153 148 145 147 147 141 137 135 136 139 136 128 128
220 147 89 35 14 54 51 53 35 4 348 38 105 120 223 107 97 195 210 231 207 189 131 111 176 167 156 156 155 157 162 167 180 188 188 189 191 193 191 190 192 195 196 195 200 199 196 196 194 191 194 197 193 194 199 196 194 192 196 198 195 195 194 192 192 193 193 185 176 168 170 180 182 175 171 171 170 166 162 161 160 158 157 156 156 151 148 149 146 140 138 142 147 148 145 140 136
252 132 78 38 27 70 50 55 27 347 4 50 100 305 21 98 214 214 218 234 186 113 95 76 53 108 139 148 152 160 169 172 182 191 193 192 192 194 192 191 192 193 195 196 201 204 200 196 194 193 188 191 193 189 192 199 199 196 196 197 197 198 197 196 194 195 195 190 188 179 173 181 185 176 170 174 174 168 163 162 163 162 160 159 158 154 151 150 147 146 154 158 158 156 153 150 145
245 121 86 44 40 79 64 69 66 6 22 30 11 326 324 213 245 278 224 236 221 121 105 102 89 108 132 144 159 170 177 180 189 194 196 196 196 196 194 193 193 192 193 195 200 205 206 203 200 200 193 190 195 191 189 195 201 201 198 196 198 201 201 201 199 198 197 194 195 187 180 185 186 175 170 176 179 168 161 165 169 166 164 162 161 158 154 153 158 164 168 166 162 160 157 152 148
240 139 107 103 71 89 91 98 95 45 31 26 17 294 269 237 14 342 251 240 243 175 119 117 115 120 140 153 167 176 180 186 191 195 198 202 201 199 198 198 194 192 194 195 197 203 207 206 203 205 203 198 198 199 196 195 199 203 202 198 198 202 204 205 204 202 201 200 199 191 187 188 184 175 172 180 183 169 164 178 183 172 165 164 165 163 158 163 174 175 171 166 162 158 154 149 147
247 116 118 125 105 99 107 114 102 79 65 56 357 255 239 57 37 273 246 233 228 183 140 137 133 143 166 167 173 177 181 187 189 192 197 201 202 201 201 201 198 194 196 197 197 201 206 205 201 203 207 203 198 202 203 199 202 206 207 205 201 203 205 206 207 206 204 203 201 196 193 194 188 179 177 183 183 175 176 188 190 177 169 173 176 168 165 178 180 173 167 163 160 157 153 151 150
82 106 106 109 119 116 141 130 110 97 55 89 289 282 234 104 64 256 254 226 186 156 154 162 156 173 188 185 184 182 184 189 189 188 189 194 200 203 201 201 201 200 197 196 197 198 204 206 199 199 206 203 197 200 202 201 204 205 208 210 206 206 208 206 207 209 207 206 205 201 197 199 195 186 183 185 185 181 185 190 186 180 179 184 182 171 172 184 178 169 165 163 162 160 157 156 156
126 120 103 110 142 131 160 165 133 150 62 154 283 303 275 132 192 238 223 171 155 158 185 191 187 195 200 202 195 187 190 192 188 183 183 189 198 201 200 201 201 202 200 198 198 197 201 204 198 197 202 202 198 198 199 201 203 205 209 211 209 207 210 208 207 209 209 208 208 204 201 202 200 194 188 187 188 186 188 190 184 183 187 187 182 175 178 182 174 168 168 167 166 164 161 159 157
129 160 137 141 163 146 178 169 139 166 147 234 341 315 268 195 224 237 198 162 168 173 194 199 202 200 203 210 200 193 195 191 185 186 192 195 198 200 201 203 202 202 203 203 201 197 199 199 196 197 199 199 200 198 200 203 201 205 213 217 216 210 209 210 209 209 209 209 209 206 206 206 204 202 196 191 192 192 191 190 186 186 189 187 183 180 178 177 174 172 171 171 168 165 162 159 158
149 209 216 139 167 193 187 159 131 153 131 171 81 326 265 227 231 232 174 156 164 181 209 208 210 203 201 206 200 196 192 190 190 194 199 200 200 201 202 205 204 202 203 203 203 201 200 198 197 199 197 197 200 199 202 206 202 204 213 219 223 219 212 210 210 209 209 209 209 209 209 210 208 207 203 196 194 196 193 191 191 189 187 187 186 183 180 179 179 177 175 173 168 167 163 161 161
160 141 351 162 191 175 163 141 145 164 266 166 124 239 269 284 265 207 147 158 164 194 222 219 218 212 202 196 195 197 191 197 204 202 201 202 203 203 203 203 203 204 202 201 202 202 203 203 201 201 198 198 202 202 204 208 204 204 212 216 223 225 218 214 213 211 211 211 212 212 210 210 210 209 207 202 197 197 196 193 194 192 189 189 188 186 185 183 185 182 180 175 168 168 165 162 162
156 120 261 235 213 128 123 128 156 157 301 190 158 232 263 275 280 113 124 144 169 222 239 234 226 219 210 197 189 194 199 204 209 209 205 204 204 203 204 202 201 203 202 202 201 200 202 206 206 204 201 200 203 205 205 207 205 208 214 216 222 227 220 215 213 210 209 212 214 214 212 210 209 208 207 206 201 198 198 197 198 199 196 194 192 192 192 190 189 185 183 182 176 169 165 162 163
200 165 222 199 187 185 165 311 164 128 121 193 200 252 276 268 180 156 172 163 174 225 251 248 237 228 221 208 193 194 204 206 208 209 205 205 206 205 206 204 203 204 204 204 202 199 200 205 208 206 205 205 205 207 207 209 210 213 216 215 219 226 221 215 212 209 208 212 215 215 213 212 214 212 207 207 205 200 201 201 201 203 202 200 199 198 198 196 193 187 183 187 184 174 167 164 162
194 174 256 256 186 182 180 308 317 142 161 221 214 231 261 271 254 218 216 192 182 201 228 238 239 238 233 218 203 196 199 207 209 203 201 204 206 206 207 207 206 205 205 206 206 203 202 204 208 207 207 208 208 209 211 213 213 214 215 215 217 221 221 216 214 214 213 214 217 219 217 214 217 218 210 208 209 206 204 204 203 204 204 204 203 200 200 199 196 192 187 185 184 179 172 168 165
171 170 219 243 203 235 248 130 170 166 178 248 234 234 250 263 267 257 236 211 195 207 219 228 237 242 243 230 218 209 202 209 213 204 201 202 205 206 207 208 205 204 204 205 206 205 203 205 208 208 206 206 206 206 210 211 209 209 211 212 214 219 221 219 217 218 218 216 216 219 219 214 216 219 212 207 210 211 208 205 204 204 204 204 203 200 200 199 196 192 188 183 180 178 177 173 168
47 142 197 210 204 246 184 106 115 149 161 234 241 248 252 258 264 263 251 227 211 221 225 227 231 232 237 235 230 224 216 215 211 205 201 199 202 205 205 206 204 202 203 203 204 204 203 204 206 207 206 205 203 202 206 208 205 206 209 208 211 217 220 222 223 225 225 223 220 220 220 217 216 217 215 213 213 213 210 207 205 206 206 205 203 200 200 202 200 194 190 185 178 173 174 173 169
23 12 1 307 351 16 81 92 3 1 356 243 240 251 256 259 263 262 259 255 245 243 244 242 237 230 227 229 233 231 228 227 212 205 201 197 200 203 202 202 200 199 202 202 203 204 205 204 205 207 207 205 203 202 204 205 205 206 207 209 210 213 215 216 220 226 229 229 228 226 225 224 222 221 222 221 218 215 212 208 207 207 207 206 206 206 206 205 203 197 189 184 179 172 169 171 171
21 11 2 346 335 70 70 76 250 36 39 266 269 275 267 264 272 274 266 261 255 244 245 246 240 239 234 228 233 234 234 232 212 204 195 190 192 195 195 195 195 196 200 203 204 206 206 204 204 207 206 203 204 204 204 206 207 207 207 209 210 212 214 213 216 220 225 228 229 229 230 230 228 226 225 223 219 216 213 210 210 209 208 207 207 207 207 205 202 196 188 181 179 176 173 173 174
35 36 10 331 291 167 63 52 360 76 117 274 306 305 282 272 271 272 266 258 251 235 232 237 234 237 238 231 232 231 230 226 209 200 186 181 183 186 188 192 196 200 202 203 205 205 204 203 204 206 205 203 204 205 206 208 209 209 209 210 210 212 215 215 218 221 224 227 226 225 228 229 227 225 224 220 217 215 214 214 213 212 211 208 206 204 204 204 201 197 192 186 180 177 175 177 180
75 159 180 272 263 80 32 350 317 220 211 282 328 312 283 274 260 256 252 247 250 242 235 239 231 231 236 235 233 221 216 215 205 199 185 177 177 180 187 193 197 201 202 202 204 204 203 203 204 205 205 205 204 206 208 209 209 208 210 212 210 211 213 215 219 225 229 231 230 224 220 220 219 218 218 216 214 213 215 217 216 213 211 210 208 206 204 204 202 199 196 193 186 179 174 179 185
212 203 203 229 239 113 108 38 320 248 226 349 336 313 281 267 247 255 255 239 246 246 237 244 237 232 239 246 247 233 219 211 201 200 189 176 179 186 193 197 198 199 202 204 205 205 205 205 204 205 205 205 205 206 207 207 206 204 204 205 206 208 212 214 216 221 226 230 233 229 220 215 213 213 215 214 214 214 214 217 218 215 212 211 210 209 209 208 206 203 200 197 194 190 183 181 186
226 213 207 232 271 40 91 40 3 341 326 307 7 338 289 296 292 281 299 291 258 243 226 237 241 235 238 245 246 242 238 225 209 205 190 175 184 192 195 198 198 200 205 208 208 207 207 207 206 205 206 206 206 206 206 206 204 202 200 199 200 202 206 211 214 216 220 224 230 229 222 216 213 213 214 215 215 215 216 217 218 217 217 216 214 212 211 209 207 205 203 200 199 199 192 183 186
253 266 332 328 325 46 82 16 11 22 285 243 123 83 282 304 296 272 278 288 274 257 238 238 238 230 227 231 228 224 229 225 218 219 204 178 181 187 191 196 200 204 209 210 209 208 207 207 207 206 206 206 206 207 206 206 205 204 204 205 205 205 207 212 216 217 218 223 228 227 222 218 215 214 215 217 218 217 218 219 222 224 222 219 215 213 212 211 209 206 204 202 201 201 196 189 189
231 269 331 349 50 94 116 68 223 227 315 288 160 148 246 287 285 272 250 263 270 261 253 250 243 234 228 222 207 195 196 190 190 205 210 183 173 177 186 196 203 209 211 209 207 207 206 206 207 206 207 207 207 208 207 207 206 205 206 209 211 212 213 215 219 222 222 224 227 226 223 220 219 218 218 220 219 218 220 223 226 227 223 218 214 215 215 214 212 208 205 205 205 203 202 201 195
227 243 330 31 80 89 101 87 274 311 12 310 200 151 228 257 277 290 273 246 257 254 251 254 249 236 222 198 152 129 122 120 129 152 162 140 152 169 182 194 203 208 208 206 205 205 204 204 205 205 205 206 207 208 208 207 208 209 208 210 212 215 218 219 224 230 226 223 225 225 223 221 220 219 219 219 219 220 222 225 227 227 222 217 213 214 214 214 213 211 209 210 209 208 208 209 204
203 192 96 75 88 70 67 93 36 13 338 255 200 170 237 257 252 275 281 244 238 247 250 254 253 218 147 112 102 100 95 87 87 107 113 107 125 147 161 177 189 197 202 203 202 202 202 202 202 202 203 205 206 207 208 207 208 210 211 211 213 215 217 219 224 228 222 218 220 221 222 222 221 220 220 222 222 222 222 224 227 226 221 216 214 213 212 213 213 213 214 215 214 212 211 211 210
154 155 104 91 102 65 51 103 84 36 277 255 199 185 206 275 251 230 249 228 207 236 257 230 80 82 89 90 98 118 122 122 122 117 115 117 132 148 151 158 171 183 191 195 197 199 200 200 201 201 202 205 206 207 209 209 209 211 212 214 215 215 216 216 218 219 214 212 214 218 221 223 222 222 223 224 224 223 221 220 221 220 216 213 214 213 213 214 215 215 217 217 216 215 214 213 213
92 137 120 108 22 39 25 15 74 200 255 281 270 199 199 250 255 238 280 315 148 181 223 118 116 112 114 125 147 158 154 155 153 145 144 141 148 162 164 164 169 178 185 189 195 197 198 199 200 200 201 204 207 207 209 211 212 212 213 215 216 216 217 216 216 216 213 212 213 216 219 221 221 222 224 224 223 221 219 214 211 209 208 210 213 214 214 216 217 218 218 218 218 217 215 214 212
12 148 117 105 331 9 346 241 160 225 242 264 332 358 246 244 247 256 287 298 245 200 170 119 129 137 146 165 184 183 174 171 164 157 165 173 180 182 178 175 175 181 187 190 193 195 197 198 199 200 200 202 207 209 210 212 214 215 215 216 217 217 217 215 216 218 217 217 216 215 216 217 218 221 222 223 222 220 217 211 207 206 207 210 214 216 217 218 219 220 222 222 221 220 217 214 213
195 169 136 139 171 202 239 227 216 235 246 282 316 345 264 268 271 239 241 259 266 190 141 171 170 164 167 175 185 187 186 181 168 163 172 185 194 193 188 184 182 185 190 191 193 194 195 196 198 201 202 203 207 211 212 213 216 219 220 220 220 221 219 216 216 218 219 218 217 217 218 218 220 221 222 222 223 221 218 214 212 211 212 214 217 219 220 221 222 223 225 224 223 223 219 215 214
199 186 159 174 172 188 216 190 209 233 248 305 309 284 210 222 285 255 247 295 308 313 247 275 287 219 174 199 201 191 189 182 170 174 186 195 193 190 189 190 190 191 191 191 192 193 195 196 198 201 203 204 207 211 213 214 217 220 222 224 224 224 222 218 218 220 220 219 218 220 221 220 221 223 224 225 228 227 223 221 219 217 218 219 220 221 222 222 223 224 226 226 225 224 219 214 213
222 202 181 217 200 181 198 161 186 172 14 295 240 246 224 205 280 277 279 301 302 305 318 331 322 314 308 279 245 194 188 187 184 195 208 207 195 190 190 192 193 194 193 192 192 193 196 198 200 202 204 205 206 210 213 216 218 220 222 224 225 224 223 221 221 221 222 222 220 221 223 223 224 227 228 230 232 231 227 225 224 223 223 224 223 224 225 225 224 225 226 226 226 224 219 215 214
206 179 203 217 136 124 176 275 27 105 266 263 189 252 277 302 290 265 243 252 261 291 316 320 307 301 291 288 294 173 187 197 199 205 216 217 203 197 197 195 194 193 194 195 196 198 200 200 201 202 204 205 207 210 213 216 217 218 220 221 222 222 222 222 223 223 223 224 222 222 225 227 229 230 231 233 233 231 227 226 227 229 230 228 226 226 227 228 227 227 227 227 227 225 220 216 215
143 176 207 131 42 38 143 226 347 133 246 262 183 247 278 295 277 278 243 235 229 247 269 263 270 280 282 293 299 213 195 201 208 215 227 230 217 209 205 203 203 202 201 201 202 203 204 204 203 202 203 205 207 210 214 216 216 217 219 219 221 222 222 223 225 227 226 225 224 223 224 226 229 231 231 232 232 230 229 229 231 234 233 230 227 226 227 229 229 228 228 228 227 224 219 214 213
116 190 218 93 103 244 140 183 238 206 237 273 251 252 265 246 247 311 359 224 206 224 230 221 234 246 258 275 278 258 185 239 272 269 268 240 215 211 205 203 208 210 210 209 207 205 204 205 205 205 206 208 209 211 214 217 218 218 220 222 224 224 223 224 226 228 228 228 228 226 226 226 227 230 231 231 231 231 232 233 235 235 231 228 226 225 226 225 226 226 225 226 224 221 218 213 211
27 356 360 73 147 179 167 196 210 191 216 256 270 269 258 241 234 232 233 220 207 215 210 177 161 171 233 249 261 340 22 354 324 304 280 237 212 211 208 209 210 209 210 211 208 206 204 204 204 205 208 210 211 212 213 217 219 220 222 223 224 224 224 224 224 226 228 229 230 229 229 229 229 230 230 231 233 234 234 235 235 233 229 226 225 225 225 224 222 222 221 221 220 218 215 211 209
128 322 208 185 128 106 231 247 199 185 205 231 259 269 260 241 201 217 223 204 181 154 94 57 21 343 303 230 164 58 18 316 292 276 263 236 203 201 207 216 215 210 209 208 208 207 205 205 205 205 206 208 211 212 213 217 219 220 221 221 222 223 223 223 223 225 226 227 228 228 229 229 229 230 230 231 233 234 236 237 236 234 231 229 228 227 227 225 222 220 219 219 218 216 213 209 207
185 191 195 196 185 154 207 250 221 183 210 223 221 266 270 244 142 132 72 81 100 94 50 358 332 314 292 131 136 136 270 279 282 289 305 1 55 183 204 212 209 208 208 205 206 207 206 207 207 207 208 210 212 213 213 216 218 220 222 223 223 222 222 224 224 224 224 225 226 226 226 226 227 228 230 232 234 234 237 238 238 236 234 231 230 229 227 224 222 221 219 219 219 216 212 207 205
Height
788 788 787 788 786 787 787 788 806 803 800 814 812 816 816 806 806 809 813 813 814 815 810 810 810 812 816 819 821 823 826 827 832 837 846 841 834 838 838 839 841 841 844 845 846 846 847 848 849 850 851 852 852 853 854 855 856 856 857 857 857 857 857 857 857 857 857 857 857 856 857 857 856 857 857 858 859 859 859 860 860 859 860 859 859 860 859 859 859 859 859 859 859 859 859 860 860
788 788 786 788 785 791 791 786 812 810 804 820 815 816 815 805 808 813 815 816 817 815 809 810 811 813 814 814 815 820 827 825 826 830 834 834 836 838 838 840 841 842 844 845 846 846 847 848 849 850 851 852 853 854 855 856 857 857 857 858 858 858 858 858 858 858 858 858 858 858 858 858 858 858 859 860 860 861 861 861 861 861 861 861 861 861 861 861 861 861 861 861 860 861 861 861 862
788 788 785 789 786 789 790 791 813 812 811 827 822 813 809 809 814 815 815 815 814 811 811 812 813 815 814 817 818 824 831 827 825 828 831 834 836 837 839 841 841 843 844 845 847 846 847 848 849 850 851 853 853 855 856 857 857 858 858 858 859 859 859 860 859 859 859 859 859 859 859 859 860 860 861 861 862 862 863 863 863 863 862 862 862 863 862 862 863 863 862 862 862 862 863 863 864
787 787 786 788 790 792 796 802 808 808 815 824 824 814 806 813 815 816 814 812 811 810 812 813 817 815 816 824 820 824 831 827 827 828 831 834 834 837 839 840 842 843 844 846 847 847 848 848 850 851 852 853 854 855 856 857 858 858 859 859 860 860 861 861 861 860 860 859 860 860 860 861 861 862 862 863 864 864 864 864 864 864 864 864 864 864 864 864 865 864 864 864 864 864 865 865 866
787 788 787 787 796 797 799 805 801 809 820 816 820 814 804 811 814 816 814 812 811 811 813 813 820 816 816 821 819 826 832 828 828 827 830 832 833 837 839 841 842 843 845 846 846 848 848 849 850 851 852 853 855 856 857 858 858 859 860 860 861 861 862 862 862 861 861 861 861 861 861 862 862 863 864 864 865 865 866 866 865 865 865 865 866 866 866 866 866 866 866 866 866 866 867 867 868
787 787 786 787 792 792 802 811 807 814 816 806 814 812 804 809 811 815 814 813 811 812 813 814 819 818 820 821 819 827 828 827 828 828 830 832 834 837 839 840 842 844 845 846 847 848 849 850 851 852 853 854 856 857 858 859 859 860 860 861 862 863 863 863 863 862 862 862 862 862 863 863 864 864 865 866 866 867 867 867 867 867 867 867 867 867 867 868 868 868 868 867 868 868 869 869 870
788 790 788 792 793 792 808 814 810 816 811 802 809 808 806 809 809 813 815 816 816 814 814 815 815 818 825 822 823 827 825 826 827 828 830 831 834 836 838 840 842 844 845 846 847 848 849 850 851 853 853 855 856 857 859 859 860 861 861 862 863 864 864 864 863 863 863 863 863 864 864 864 865 866 867 867 868 868 868 868 868 868 868 868 868 869 869 869 869 869 869 869 870 870 870 871 871
789 792 789 799 804 800 808 810 810 814 810 804 805 805 805 807 808 811 814 816 818 816 816 816 814 822 826 819 827 830 825 827 827 830 830 831 834 836 838 840 842 844 845 846 847 848 849 851 852 853 854 856 857 858 859 860 861 861 862 863 864 865 865 865 864 864 864 864 864 865 865 865 866 867 867 868 869 869 869 869 869 869 870 870 870 870 870 871 871 871 871 871 871 872 872 873 873
788 792 792 801 809 806 806 808 811 811 809 807 807 805 804 805 806 809 813 814 815 816 817 815 815 824 825 821 830 829 826 829 828 830 831 833 835 836 838 840 842 843 844 845 847 848 849 851 852 854 855 856 857 858 859 860 861 861 863 863 864 865 865 865 865 865 865 865 865 865 866 866 866 867 868 869 869 870 870 871 871 871 871 871 871 871 872 872 872 872 872 872 873 873 874 874 875
789 792 796 803 809 810 809 810 812 811 808 806 807 806 804 804 804 807 812 814 813 815 817 813 816 822 821 826 831 827 827 829 829 832 832 834 835 837 838 840 842 843 844 845 847 848 849 851 852 854 855 856 857 858 859 860 861 862 863 864 865 865 866 866 866 866 866 866 866 866 866 867 867 868 869 870 870 871 872 872 872 872 872 872 872 873 873 873 873 873 874 874 874 875 875 876 876
796 793 795 807 812 813 813 812 813 811 808 806 807 805 804 804 805 808 809 813 812 815 817 815 819 820 819 827 830 826 826 828 829 831 832 834 836 837 839 840 842 843 844 845 846 848 849 851 852 854 855 856 857 858 859 860 861 863 864 864 865 866 866 866 866 866 867 867 867 867 867 868 868 869 870 871 872 872 873 873 873 873 873 874 874 874 874 874 874 874 875 875 876 876 877 878 878
802 798 798 814 815 811 811 811 813 811 810 809 810 806 803 804 807 810 810 813 813 815 817 816 818 816 820 827 829 827 826 828 829 830 833 834 836 837 839 840 842 844 844 845 846 847 849 850 852 853 854 856 857 858 859 860 862 863 864 865 866 866 867 867 867 867 867 868 868 868 869 869 870 870 871 872 872 873 873 874 874 874 874 875 875 875 875 875 876 876 876 876 877 878 878 879 879
801 799 803 815 809 808 809 810 812 811 812 810 810 806 803 807 809 809 810 812 813 816 816 813 813 814 822 828 827 827 827 828 828 830 833 834 836 837 839 840 842 844 844 845 846 847 849 850 851 853 854 855 857 858 859 861 862 863 864 865 866 867 867 867 867 867 868 868 869 869 870 870 871 872 872 873 873 874 874 874 874 875 875 876 876 876 876 877 877 877 878 878 879 879 880 880 881
797 794 802 811 805 806 808 811 812 812 815 808 806 805 804 807 807 805 808 814 815 815 814 809 809 817 824 827 830 829 827 828 828 831 832 834 836 837 839 840 842 844 844 846 846 847 848 850 851 852 854 855 856 858 860 861 862 863 864 865 866 867 867 868 868 868 868 869 869 870 871 871 872 872 873 873 874 874 874 875 875 875 876 877 877 877 877 878 878 879 879 879 880 881 881 882 882
794 792 799 809 809 809 808 811 811 813 817 809 806 805 806 807 804 806 808 814 817 811 810 809 810 819 823 825 830 827 825 828 828 831 832 834 835 837 839 840 842 843 845 846 847 847 848 850 850 852 853 854 856 858 859 860 861 863 864 865 866 867 867 868 868 868 869 869 870 871 871 872 873 873 874 874 874 875 875 875 876 876 877 877 878 878 878 879 879 880 880 881 881 882 883 883 884
792 793 802 812 813 813 811 808 809 815 816 809 807 804 809 810 804 809 809 809 815 810 810 813 812 817 821 822 825 822 824 828 829 831 832 834 835 837 838 839 842 843 844 846 847 848 848 850 850 852 853 854 856 857 859 860 861 862 864 865 866 867 867 867 868 869 869 870 871 871 872 873 873 874 874 874 875 875 876 876 876 877 877 878 878 878 879 880 880 881 881 882 883 883 884 885 885
791 798 808 815 815 813 809 807 809 815 814 809 807 805 811 814 807 808 807 807 813 813 812 814 812 814 818 821 822 822 825 827 829 831 831 834 835 837 838 839 841 842 844 845 846 847 848 849 850 851 852 853 855 856 858 859 861 862 863 865 865 866 866 867 868 869 870 870 871 872 872 873 873 874 874 875 875 876 876 877 877 877 878 878 878 879 880 880 881 882 883 884 884 885 886 886 886
796 804 812 815 813 809 803 802 804 805 810 810 808 806 809 814 812 809 809 811 813 814 814 813 814 815 818 820 822 823 825 827 829 830 831 833 834 836 837 838 840 841 842 844 845 847 848 849 849 851 852 853 855 856 857 858 860 861 863 864 865 866 866 867 868 869 870 871 872 872 873 873 874 874 875 875 876 876 877 877 877 878 878 878 879 879 880 881 881 883 884 885 885 886 887 887 887
800 805 812 812 807 803 796 797 800 802 807 809 807 806 806 810 811 809 813 816 814 817 816 814 817 819 820 820 822 824 825 827 828 829 830 831 833 834 836 837 838 839 841 842 844 846 847 848 849 850 851 853 854 855 856 857 859 860 862 863 864 865 866 867 868 869 870 871 872 873 873 873 874 874 875 875 876 877 877 878 878 878 879 879 880 880 881 881 883 884 885 886 886 887 887 888 888
799 802 812 809 802 801 797 798 801 802 803 805 807 806 806 807 807 810 814 815 815 817 816 815 818 819 820 820 821 823 824 826 828 828 830 830 832 832 834 835 836 838 839 841 843 845 846 847 849 850 851 852 853 854 855 857 858 859 860 862 863 864 865 866 867 869 870 871 872 873 874 873 874 874 875 876 876 877 877 878 879 879 880 880 881 881 882 883 884 885 886 886 887 888 888 888 888
799 802 810 805 798 803 803 801 802 802 801 803 806 808 809 806 805 810 812 816 816 813 809 809 812 812 815 818 819 821 823 825 827 827 828 829 830 831 832 834 835 837 838 840 841 843 844 845 847 849 850 851 852 853 854 856 857 858 859 860 862 863 864 866 867 868 869 870 871 873 873 873 873 874 875 876 876 877 877 878 879 880 880 881 882 882 883 884 885 886 887 887 888 888 888 889 889
801 801 804 801 799 805 806 803 805 804 802 804 807 811 810 806 807 809 811 816 815 808 805 804 804 804 808 814 817 819 821 823 825 826 827 828 829 830 831 832 834 836 837 838 839 840 842 843 845 847 848 849 851 852 853 855 856 857 858 859 861 862 864 864 866 867 868 870 871 872 873 872 873 874 875 875 876 877 878 879 879 880 881 881 882 883 883 885 886 887 887 888 888 888 888 889 889
804 803 801 802 801 805 807 804 807 805 804 808 810 810 807 808 811 808 809 811 807 803 802 802 802 801 805 811 815 818 819 821 822 822 823 825 826 827 829 830 832 834 834 836 837 838 840 841 843 844 846 847 849 851 852 853 855 856 857 858 860 861 862 863 865 866 867 869 870 871 872 872 873 874 874 875 876 877 878 879 879 880 881 882 883 883 884 885 886 887 887 887 888 888 889 889 889
804 806 804 804 803 806 807 806 808 807 808 809 809 809 809 812 812 808 807 806 801 801 800 801 803 803 806 810 813 815 816 818 819 820 821 822 824 825 827 829 830 831 832 834 835 836 838 839 841 842 844 845 847 849 850 852 853 854 856 857 858 859 861 862 863 865 866 867 868 870 870 871 872 873 874 875 876 877 878 879 880 881 881 882 883 883 884 885 886 886 887 887 888 889 889 889 890
803 805 805 805 805 806 807 807 808 808 808 809 809 811 810 809 811 810 808 803 800 799 800 801 802 804 807 809 811 813 814 816 817 818 820 821 823 825 826 827 828 829 830 831 833 834 835 837 839 841 842 843 845 847 848 850 851 852 854 855 857 858 859 860 862 863 865 866 867 868 869 870 871 872 873 874 875 876 878 879 880 881 881 882 883 883 884 885 886 886 887 887 888 889 889 890 890
802 803 805 805 807 807 807 807 808 809 808 809 811 813 810 807 810 810 804 800 799 797 800 801 802 805 806 807 809 810 812 813 815 817 818 820 821 823 824 825 826 827 828 829 831 832 833 835 837 839 840 842 844 845 847 848 849 851 852 853 855 856 857 859 860 862 863 864 865 867 868 869 870 871 872 873 874 876 877 878 879 880 881 882 882 883 884 885 885 886 887 887 888 888 889 890 890
800 801 804 805 807 807 807 808 809 809 809 810 813 814 810 807 812 811 801 796 796 797 801 801 802 805 805 806 806 807 809 810 812 814 816 818 819 820 821 822 824 824 826 828 829 830 831 833 835 837 838 840 842 844 845 847 848 849 850 851 852 854 855 857 858 860 861 862 863 865 866 867 869 870 871 872 873 875 876 876 878 879 881 881 882 883 884 885 885 886 887 887 888 888 889 890 890
799 802 805 807 807 807 807 808 809 810 811 811 812 813 810 810 814 808 799 796 796 798 801 800 802 803 803 804 804 804 806 807 809 811 813 814 814 816 817 818 820 822 824 825 827 829 830 831 832 835 836 837 840 841 843 845 846 847 848 849 850 852 853 855 856 857 859 860 861 863 864 865 867 868 870 871 872 874 875 875 877 878 879 880 881 882 883 884 885 886 887 887 888 888 889 890 891
800 802 808 810 807 809 809 808 809 810 813 810 811 818 814 812 809 798 796 797 796 798 800 800 800 801 802 802 802 803 803 804 806 807 808 809 810 812 814 815 817 819 821 822 825 827 828 829 830 832 834 835 837 839 840 842 843 845 846 847 848 850 851 852 853 855 856 858 859 861 862 864 865 867 868 869 870 872 873 874 875 877 878 879 881 881 882 883 884 885 886 887 888 889 889 890 891
803 802 807 811 813 813 807 806 809 811 814 809 813 826 817 804 799 792 794 796 797 800 800 799 799 799 800 800 800 801 801 802 803 804 805 806 808 809 811 813 814 817 818 820 822 823 825 826 828 830 831 833 834 836 838 839 841 843 844 844 846 847 848 850 850 852 853 855 856 858 859 861 863 864 866 867 868 870 871 873 874 876 877 878 879 880 881 881 882 883 885 886 887 888 889 890 890
805 807 809 812 818 818 806 805 810 812 815 808 815 831 820 802 796 793 793 794 797 800 799 799 798 797 797 797 798 799 799 800 800 801 802 804 806 807 809 810 812 814 816 817 818 820 822 823 825 827 828 831 832 833 835 836 838 840 841 841 842 844 846 847 848 850 851 852 854 855 856 858 860 862 863 865 866 867 869 870 872 874 876 877 878 879 880 880 881 882 883 884 886 887 888 889 890
805 814 820 815 818 821 811 807 809 813 815 810 817 830 819 803 798 796 794 795 797 800 799 797 796 795 795 795 796 797 797 797 798 798 800 801 803 804 806 807 809 811 812 814 815 817 819 821 822 824 826 828 829 831 832 834 836 837 838 839 840 842 843 844 846 847 848 850 851 852 854 855 857 859 861 862 864 865 866 868 870 872 873 875 876 877 879 879 880 881 881 882 883 885 887 888 890
809 816 823 817 818 822 818 812 809 811 814 813 817 823 816 804 799 797 795 796 798 800 799 797 795 793 793 793 793 795 795 795 795 796 797 799 800 801 802 804 806 807 809 810 812 815 816 817 819 821 823 825 827 828 830 831 833 835 836 838 839 840 841 842 843 845 846 847 849 850 852 853 855 857 858 860 861 862 864 865 867 869 871 872 874 875 877 878 879 880 881 881 881 883 885 887 889
817 817 820 816 814 818 820 818 813 810 815 817 817 820 817 806 800 798 797 796 797 798 798 795 793 792 791 791 791 791 793 793 792 792 794 795 796 798 799 801 802 804 806 807 809 811 813 814 816 818 820 822 824 826 828 829 831 834 835 837 838 838 839 840 841 843 844 845 846 848 849 851 853 855 856 857 859 860 861 863 865 867 868 870 871 873 875 877 878 879 880 882 882 881 882 884 887
818 820 821 818 812 813 816 818 815 813 816 818 819 820 816 806 800 798 796 795 796 795 794 792 791 791 789 789 788 788 789 789 788 787 789 791 793 795 796 798 800 801 803 805 806 809 811 812 813 815 817 819 821 823 825 827 829 832 833 835 836 837 837 838 839 840 841 843 844 846 847 848 850 852 854 855 856 858 859 861 862 864 866 868 869 871 873 874 876 877 878 880 882 882 882 883 885
811 813 815 817 814 814 814 817 816 813 818 821 819 819 813 806 800 796 793 791 792 792 790 790 789 788 787 787 786 785 785 784 782 783 785 787 789 790 793 794 797 799 800 802 804 806 808 809 810 812 814 816 819 821 822 825 827 829 830 831 832 833 834 835 837 837 838 840 842 843 845 846 848 849 851 852 854 855 856 858 859 861 863 865 866 868 869 871 873 875 876 878 880 882 883 882 883
808 810 812 813 813 816 816 820 819 813 818 819 814 813 809 803 798 793 791 789 789 790 788 787 786 785 784 784 784 782 782 780 778 780 781 782 784 786 789 791 794 796 797 799 800 802 803 805 807 808 811 814 815 817 819 820 822 823 825 826 827 829 831 832 833 834 835 837 839 841 842 843 845 847 848 850 851 852 854 855 856 858 860 862 863 865 867 869 871 873 875 876 877 879 881 881 882
808 813 816 816 815 817 818 821 820 816 821 819 811 812 808 801 797 791 789 789 788 787 786 785 783 781 781 780 780 779 778 777 776 777 777 779 781 783 785 787 789 791 793 795 796 797 799 801 803 805 807 810 811 813 814 815 817 818 820 821 823 826 828 829 830 831 832 833 836 838 840 841 842 844 845 846 848 849 851 852 854 856 857 859 861 863 865 866 869 871 872 875 876 876 877 878 879
813 816 821 824 818 816 820 822 820 818 823 821 814 816 811 801 797 791 788 787 783 780 779 779 778 778 778 776 776 776 776 776 775 775 776 777 779 781 783 785 786 787 788 790 792 794 796 798 799 801 803 805 807 809 810 811 813 816 818 820 822 824 826 827 828 829 830 831 833 836 837 838 839 840 842 843 844 846 847 850 851 853 854 856 859 860 862 863 865 868 869 871 873 875 876 877 877
816 818 824 827 819 819 826 826 822 819 820 820 819 822 814 801 797 790 784 780 776 775 774 773 773 773 772 772 771 772 773 773 773 774 774 776 778 780 781 782 784 785 787 788 790 792 793 794 796 797 799 801 803 805 807 809 812 815 817 819 821 822 824 825 827 828 828 829 831 833 835 835 836 837 839 840 841 843 845 847 849 850 851 853 855 857 859 860 862 864 866 867 869 871 873 874 875
818 817 821 823 817 819 825 824 821 817 818 820 823 826 811 794 793 787 778 776 774 773 773 770 769 768 768 768 768 768 769 770 771 772 772 774 776 777 778 779 781 783 785 786 788 789 790 792 794 795 797 799 801 803 805 808 810 813 815 817 819 820 821 822 823 824 824 826 827 829 832 833 834 835 836 838 839 841 842 844 847 848 849 851 852 854 855 857 858 860 861 862 864 865 867 870 872
819 816 816 816 815 818 821 822 824 826 828 825 826 832 814 790 791 789 779 777 776 772 771 770 767 766 767 767 767 767 767 768 769 769 770 771 773 774 776 778 779 781 782 784 785 787 789 791 793 795 796 798 799 801 803 805 807 809 810 812 814 815 816 817 817 819 820 822 823 825 829 831 832 833 834 836 837 838 840 842 844 846 847 848 849 851 852 854 855 856 858 859 860 861 863 865 867
823 820 818 815 814 819 823 824 828 834 834 825 824 837 831 806 792 788 783 780 777 773 769 767 766 765 765 765 765 766 766 766 767 768 768 769 771 773 775 776 778 779 781 783 785 786 788 790 792 794 795 797 798 800 801 803 804 806 807 808 810 811 812 813 814 817 818 820 822 823 826 828 829 831 832 834 835 836 838 840 842 843 844 844 845 847 849 851 852 853 854 856 858 860 861 861 863
826 823 822 819 817 822 824 826 831 832 830 826 824 831 840 826 796 780 783 784 778 774 769 765 764 763 761 761 761 762 764 765 766 767 767 769 770 771 774 775 777 778 780 782 783 785 787 789 790 792 794 795 797 798 799 801 802 804 805 807 809 809 810 812 813 815 817 819 820 821 823 825 827 828 830 831 832 833 835 837 838 840 841 842 842 842 844 847 849 851 853 855 857 859 860 860 860
825 822 821 819 820 823 823 828 832 830 833 838 830 828 840 834 801 779 780 783 781 775 768 764 760 758 758 759 760 761 763 764 765 767 768 768 770 771 772 774 776 777 779 780 782 784 786 788 789 791 792 793 795 796 797 798 800 802 804 805 807 808 810 811 812 813 815 816 818 819 820 822 824 825 827 828 829 830 832 833 835 836 838 839 839 839 841 844 847 849 851 853 855 856 858 859 859
822 821 820 820 821 823 826 831 833 835 842 842 832 830 836 827 801 785 782 781 779 772 765 762 758 756 758 760 762 763 764 766 766 767 768 769 769 771 772 773 775 776 778 779 780 782 784 786 787 789 790 792 793 794 795 796 798 799 801 803 804 806 808 810 811 812 812 814 815 816 817 819 820 822 823 825 826 827 829 830 832 833 834 836 837 838 840 842 844 846 848 850 851 853 855 856 857
819 821 822 824 825 826 830 831 833 842 844 834 826 824 829 826 801 783 779 774 769 766 763 762 759 758 760 762 764 765 766 767 768 768 769 770 770 770 771 772 774 775 777 778 779 780 782 783 785 787 788 790 791 792 793 794 795 796 798 799 800 802 805 807 808 809 810 811 812 813 814 816 817 818 820 822 824 825 826 827 829 830 832 833 835 836 838 839 841 843 845 847 849 850 852 853 854
821 821 822 830 833 833 837 838 841 849 841 829 825 821 827 829 802 775 771 766 762 762 763 763 762 760 761 764 765 766 767 768 767 768 769 770 770 770 771 772 773 774 775 776 778 779 780 781 783 785 786 788 789 790 792 793 793 794 795 795 797 799 801 803 804 805 806 807 809 810 811 813 814 815 817 819 820 822 823 825 826 828 830 831 832 834 836 837 839 841 843 845 846 847 849 850 852
823 822 825 837 843 844 848 847 847 848 838 829 828 827 825 815 791 773 769 764 760 759 759 762 762 762 762 764 765 765 767 767 766 767 768 770 771 770 770 770 771 772 773 774 776 777 778 780 781 783 785 786 787 788 790 791 791 792 792 793 794 795 797 799 800 801 802 803 805 806 807 809 810 811 813 815 817 819 820 822 824 825 827 828 830 831 833 835 837 838 840 841 843 844 845 847 849
825 823 828 839 846 852 853 848 843 839 834 831 829 830 823 804 783 773 768 762 759 757 758 760 760 761 762 762 763 764 765 766 765 766 767 767 769 768 768 768 769 769 770 772 773 775 776 778 780 781 783 785 786 786 787 788 789 790 791 792 792 793 794 795 796 797 798 799 800 802 803 804 806 807 809 811 813 816 818 819 821 823 824 825 827 829 830 832 834 835 837 838 839 841 842 844 846
822 815 820 829 832 838 841 840 837 833 832 836 836 830 815 798 782 770 764 762 759 758 758 758 757 758 759 758 760 762 763 764 764 764 764 764 765 766 766 767 767 767 768 769 771 772 774 775 777 778 780 782 783 784 784 785 787 788 789 790 791 791 792 792 793 794 794 795 796 798 799 800 802 803 805 808 810 812 814 817 819 820 822 823 825 826 828 829 831 832 834 835 837 838 840 841 843
821 811 818 825 818 818 827 832 830 831 837 838 835 824 802 786 776 766 765 763 758 759 758 757 757 756 757 758 760 762 763 763 763 762 763 763 763 764 764 764 765 766 767 767 768 769 771 772 774 775 776 778 780 781 781 782 783 785 786 787 789 790 791 791 791 792 792 793 793 794 796 797 799 800 803 805 807 808 811 813 815 817 819 821 822 824 825 826 828 829 831 832 834 836 838 839 841
818 817 821 817 808 810 823 833 831 834 841 830 820 814 795 786 777 762 762 763 760 762 760 758 759 757 756 757 758 761 761 761 761 761 761 761 761 762 762 763 763 764 764 765 766 766 767 769 771 772 774 776 777 778 778 779 780 782 783 784 786 787 788 789 790 790 791 791 791 792 794 796 797 798 800 802 803 805 807 809 811 813 815 817 819 821 822 824 825 826 828 829 831 833 835 837 839
814 821 816 807 810 813 819 832 835 838 842 824 810 807 798 798 789 764 759 765 764 764 762 760 760 757 757 757 757 759 759 759 759 759 760 760 760 761 761 762 762 763 763 763 764 765 765 767 768 769 771 772 774 775 776 777 778 779 781 782 784 785 786 787 788 790 791 791 791 791 792 794 795 797 798 800 801 803 804 806 808 810 811 813 815 817 819 821 822 823 825 826 828 830 832 834 836
809 813 808 809 822 825 822 831 835 839 843 827 810 806 801 797 787 769 766 768 765 763 761 761 760 758 759 758 756 757 757 758 758 757 758 758 759 759 759 760 761 761 763 763 763 764 764 765 766 767 768 770 772 773 774 775 776 777 779 780 782 782 783 785 787 788 790 790 790 790 791 792 793 795 796 797 799 801 802 804 805 807 808 810 811 813 816 817 819 820 822 824 826 828 830 832 833
809 809 808 810 817 821 821 822 823 830 839 831 818 813 800 782 771 769 768 763 761 762 761 760 760 759 759 757 755 756 758 758 757 757 757 757 758 758 757 759 759 760 761 762 763 763 763 764 765 765 767 768 770 772 773 773 774 775 776 777 779 780 780 781 783 785 786 787 788 789 789 790 791 793 794 795 797 799 801 802 804 805 806 808 809 811 813 815 816 818 820 823 824 826 827 829 831
814 815 815 814 815 818 820 817 813 819 830 830 826 819 794 767 759 761 761 758 758 760 760 760 760 757 757 757 757 758 758 758 758 758 758 758 757 757 757 759 759 760 761 761 762 763 762 763 763 764 765 767 768 769 770 771 772 773 773 774 776 777 779 779 779 780 782 783 785 786 787 788 789 790 792 793 795 797 798 800 802 803 805 806 807 809 811 813 814 816 819 821 823 824 825 826 828
805 809 809 810 813 817 825 825 814 811 818 818 821 819 788 757 752 755 755 758 758 758 760 760 759 758 757 758 758 759 759 758 758 756 756 757 757 758 759 759 759 760 760 760 761 762 762 761 761 762 763 764 765 767 768 769 770 771 772 772 773 775 777 778 778 777 778 780 781 783 784 786 787 788 790 791 793 795 796 798 799 801 802 804 805 807 809 810 812 814 816 819 821 822 824 825 826